Vancouver, British Columbia

1:19 PM PDT on July 28, 2017 (GMT -0700)
Vancouver International Airport

Weather History for CYVR - February, 2013

Change the Weather History Date:

Saturday, February 16, 2013

  Actual Average Record
Temperature  
Mean Temperature 46 °F -  
Max Temperature 50 °F 48 °F 57 °F (1998)
Min Temperature 41 °F 36 °F 26 °F (2005)
Degree Days  
Heating Degree Days 20    
Moisture  
Dew Point 39 °F    
Average Humidity 76    
Maximum Humidity 87    
Minimum Humidity 58    
Precipitation  
Precipitation 0.08 in 0.15 in - ()
Sea Level Pressure  
Sea Level Pressure 30.11 in    
Wind  
Wind Speed 6 mph ()    
Max Wind Speed 23 mph    
Max Gust Speed 30 mph    
Visibility 12.4 miles    
Events Rain    
Averages and records for this station are not official NWS values.
T = Trace of Precipitation, MM = Missing Value Source: Averaged Metar Reports

Daily Weather History Graph

Daily Weather History Graph

Search for Another Location

Airport or City:

Trip Planner

Search our weather history database for the weather conditions in past years. The results will help you decide how hot, cold, wet, or windy it might be!

Date:

Astronomy

Feb. 16, 2013 Rise Set
Actual Time 7:18 AM PST 5:35 PM PST
Civil Twilight 6:46 AM PST 6:07 PM PST
Nautical Twilight 6:09 AM PST 6:45 PM PST
Astronomical Twilight 5:32 AM PST 7:21 PM PST
Moon 9:56 AM PST (2/16) 12:17 AM PST (2/16)
Length of Visible Light 11h 21m
Length of Day
10h 16m
Waxing Crescent, 40% of the Moon is Illuminated
Feb 16
Waxing Crescent
Feb 17
First Quarter
Feb 25
Full
Mar 4
Last Quarter
Mar 11
New

Hourly Weather History & Observations

Time (PST) Temp. Windchill Dew Point Humidity Pressure Visibility Wind Dir Wind Speed Gust Speed Precip Events Conditions
12:00 AM 44.6 °F 42.2 °F 39.2 °F 81% 30.18 in 15.0 mi NNW 4.6 mph - N/A Rain Light Rain
1:00 AM 42.8 °F - 39.2 °F 87% 30.17 in 15.0 mi NNW 2.3 mph - N/A Rain Light Rain
2:00 AM 42.8 °F - 39.2 °F 87% 30.16 in 12.0 mi West 2.3 mph - N/A Rain Light Rain
3:00 AM 42.8 °F - 39.2 °F 87% 30.14 in 10.0 mi ESE 2.3 mph - N/A Rain Light Rain
4:00 AM 43 °F - 39 °F 81% 30.14 in 10 mi South 3.5 mph - - Rain Light Rain
4:00 AM 42.8 °F 41.1 °F 39.2 °F 87% 30.14 in 10.0 mi South 3.5 mph - N/A Rain Light Rain
4:22 AM 42.8 °F 40.1 °F - N/A% - 10.0 mi SSW 4.6 mph - N/A   Overcast
5:00 AM 42.8 °F 38.6 °F 39.2 °F 87% 30.12 in 10.0 mi East 6.9 mph - N/A   Overcast
5:50 AM 42.8 °F 40.1 °F - N/A% - 8.0 mi East 4.6 mph - N/A   Overcast
6:00 AM 42.8 °F 40.1 °F 39.2 °F 87% 30.11 in 8.0 mi East 4.6 mph - N/A   Overcast
6:23 AM 42.8 °F 39.3 °F - N/A% - 6.0 mi East 5.8 mph - N/A   Overcast
7:00 AM 42.8 °F 39.3 °F 39.2 °F 87% 30.11 in 4.0 mi ENE 5.8 mph - N/A   Overcast
7:32 AM 42.8 °F 39.3 °F - N/A% - 4.0 mi East 5.8 mph - N/A   Overcast
7:48 AM 42.8 °F 39.3 °F - N/A% - 4.0 mi ESE 5.8 mph - N/A   Mostly Cloudy
8:00 AM 42.8 °F 40.1 °F 39.2 °F 87% 30.11 in 8.0 mi East 4.6 mph - N/A   Mostly Cloudy
8:14 AM 42.8 °F 38.6 °F - N/A% - 10.0 mi East 6.9 mph - N/A   Mostly Cloudy
9:00 AM 44.6 °F 40.2 °F 41.0 °F 87% 30.12 in 12.0 mi East 8.1 mph - N/A   Mostly Cloudy
10:00 AM 47 °F - 41 °F 73% 30.11 in 12 mi ESE 3.5 mph - -   Partly Cloudy
10:00 AM 48.2 °F - 41.0 °F 76% 30.11 in 12.0 mi ESE 4.6 mph - N/A   Mostly Cloudy
11:00 AM 50.0 °F - 41.0 °F 71% 30.11 in 12.0 mi SW 3.5 mph - N/A   Scattered Clouds
12:00 PM 50.0 °F - 39.2 °F 66% 30.10 in 12.0 mi WSW 6.9 mph - N/A   Scattered Clouds
1:00 PM 50.0 °F - 39.2 °F 66% 30.09 in 12.0 mi WSW 4.6 mph - N/A   Scattered Clouds
2:00 PM 50.0 °F - 37.4 °F 62% 30.08 in 15.0 mi WSW 5.8 mph - N/A   Mostly Cloudy
2:52 PM 50.0 °F - - N/A% - 15.0 mi SW 9.2 mph - N/A Rain Light Rain Showers
3:00 PM 48.2 °F - 37.4 °F 66% 30.08 in 15.0 mi WSW 10.4 mph - N/A Rain Light Rain Showers
3:17 PM 48.2 °F - - N/A% - 15.0 mi WNW 8.1 mph - N/A   Mostly Cloudy
3:32 PM 48.2 °F - - N/A% - 15.0 mi WNW 5.8 mph - N/A Rain Light Rain Showers
3:50 PM 48.2 °F - - N/A% - 15.0 mi WNW 5.8 mph - N/A   Mostly Cloudy
4:00 PM 48 °F - 38 °F 58% 30.08 in 15 mi NW 5.8 mph - - Rain Light Rain Showers
4:00 PM 48.2 °F - 37.4 °F 66% 30.08 in 15.0 mi NW 5.8 mph - N/A   Mostly Cloudy
5:00 PM 46.4 °F 43.5 °F 37.4 °F 71% 30.08 in 15.0 mi WNW 5.8 mph - N/A   Mostly Cloudy
6:00 PM 44.6 °F 39.7 °F 37.4 °F 76% 30.09 in 15.0 mi West 9.2 mph - N/A   Mostly Cloudy
7:00 PM 44.6 °F 39.7 °F 37.4 °F 76% 30.10 in 15.0 mi West 9.2 mph - N/A   Scattered Clouds
8:00 PM 44.6 °F 38.4 °F 37.4 °F 76% 30.11 in 15.0 mi West 12.7 mph - N/A   Scattered Clouds
9:00 PM 44.6 °F 35.9 °F 37.4 °F 76% 30.11 in 15.0 mi West 23.0 mph 28.8 mph N/A   Partly Cloudy
10:00 PM 44 °F - 37 °F 68% 30.12 in 19 mi West 21.9 mph - -   Scattered Clouds
10:00 PM 42.8 °F 34.0 °F 37.4 °F 81% 30.12 in 20.0 mi West 20.7 mph 28.8 mph N/A   Partly Cloudy
11:00 PM 44.6 °F 35.9 °F 33.8 °F 66% 30.14 in 20.0 mi West 23.0 mph 29.9 mph N/A   Partly Cloudy